Hillsdale, MI

7:59 PM EST on November 20, 2019 (GMT -0500)
Hillsdale Municipal

Weather History for KJYM - September, 2019

Change the Weather History Date:

Saturday, September 14, 2019

  Actual Average Record
Temperature  
Mean Temperature 64 °F -  
Max Temperature 75 °F 74 °F 87 °F (1982)
Min Temperature 55 °F 50 °F 29 °F (1975)
Growing Degree Days 14 (Base 50)    
Moisture  
Dew Point 55 °F    
Average Humidity 75    
Maximum Humidity 94    
Minimum Humidity 48    
Precipitation  
Precipitation 0.00 in - - ()
Sea Level Pressure  
Sea Level Pressure 30.19 in    
Wind  
Wind Speed 7 mph ()    
Max Wind Speed 16 mph    
Max Gust Speed 21 mph    
Visibility 10.0 miles    
Events      
Averages and records for this station are not official NWS values.
T = Trace of Precipitation, MM = Missing Value Source: Averaged Metar Reports

Daily Weather History Graph

Daily Weather History Graph

Search for Another Location

Airport or City:

Astronomy

Sep. 14, 2019 Rise Set
Actual Time 7:17 AM EDT 7:49 PM EDT
Civil Twilight 6:49 AM EDT 8:17 PM EDT
Nautical Twilight 6:16 AM EDT 8:50 PM EDT
Astronomical Twilight 5:41 AM EDT 9:24 PM EDT
Moon 8:30 PM EDT (9/14) 7:29 AM EDT (9/14)
Length of Visible Light 13h 28m
Length of Day
12h 32m
Full, 100% of the Moon is Illuminated
Sep 14
Full
Sep 21
Last Quarter
Sep 28
New
Oct 5
First Quarter
Oct 13
Full

Hourly Weather History & Observations

Time (EDT) Temp. Dew Point Humidity Pressure Visibility Wind Dir Wind Speed Gust Speed Precip Events Conditions
12:19 AM 62.2 °F 57.6 °F 85% 30.12 in 10.0 mi West 9.2 mph - N/A   Scattered Clouds
12:37 AM 61.9 °F 57.2 °F 85% 30.12 in 10.0 mi West 11.5 mph 17.3 mph N/A   Scattered Clouds
12:55 AM 61.3 °F 57.2 °F 86% 30.13 in 10.0 mi West 10.4 mph - N/A   Clear
1:15 AM 61.0 °F 57.0 °F 87% 30.13 in 10.0 mi West 10.4 mph - N/A   Clear
1:16 AM 61.0 °F 56.8 °F 86% 30.13 in 10.0 mi West 10.4 mph - N/A   Clear
1:35 AM 60.8 °F 55.9 °F 84% 30.13 in 10.0 mi WNW 8.1 mph - N/A   Clear
1:40 AM 60.4 °F 55.8 °F 85% 30.13 in 10.0 mi West 9.2 mph - N/A   Clear
1:58 AM 59.9 °F 55.4 °F 85% 30.13 in 10.0 mi WNW 8.1 mph - N/A   Clear
2:16 AM 59.4 °F 55.0 °F 86% 30.14 in 10.0 mi WNW 6.9 mph - N/A   Clear
2:36 AM 57.9 °F 54.3 °F 88% 30.13 in 10.0 mi WNW 3.5 mph - N/A   Clear
2:55 AM 57.2 °F 54.0 °F 89% 30.14 in 10.0 mi West 4.6 mph - N/A   Clear
3:19 AM 56.3 °F 53.2 °F 89% 30.14 in 10.0 mi SSW 3.5 mph - N/A   Clear
3:37 AM 56.5 °F 53.8 °F 91% 30.14 in 10.0 mi SW 3.5 mph - N/A   Clear
3:55 AM 56.5 °F 53.8 °F 91% 30.14 in 10.0 mi Calm Calm - N/A   Clear
3:56 AM 56.3 °F 53.6 °F 91% 30.14 in 10.0 mi Calm Calm - N/A   Clear
4:15 AM 56.1 °F 53.6 °F 91% 30.15 in 10.0 mi SSW 3.5 mph - N/A   Clear
4:35 AM 55.8 °F 53.6 °F 92% 30.15 in 10.0 mi SSW 3.5 mph - N/A   Clear
4:58 AM 56.1 °F 53.8 °F 92% 30.16 in 10.0 mi SW 3.5 mph - N/A   Clear
5:16 AM 55.8 °F 53.6 °F 92% 30.16 in 10.0 mi SW 4.6 mph - N/A   Clear
5:35 AM 56.7 °F 54.1 °F 91% 30.16 in 10.0 mi SW 4.6 mph - N/A   Clear
5:36 AM 56.7 °F 54.1 °F 91% 30.16 in 10.0 mi SW 4.6 mph - N/A   Clear
5:55 AM 55.9 °F 53.6 °F 92% 30.16 in 10.0 mi SSW 3.5 mph - N/A   Clear
6:19 AM 55.4 °F 53.6 °F 94% 30.17 in 10.0 mi SSW 3.5 mph - N/A   Clear
6:55 AM 55.4 °F 53.6 °F 94% 30.18 in 10.0 mi SSW 3.5 mph - N/A   Clear
6:56 AM 55.2 °F 53.4 °F 94% 30.18 in 10.0 mi SSW 3.5 mph - N/A   Clear
7:15 AM 55.4 °F 53.6 °F 94% 30.18 in 10.0 mi SW 4.6 mph - N/A   Clear
7:35 AM 55.8 °F 53.8 °F 93% 30.19 in 10.0 mi WSW 3.5 mph - N/A   Scattered Clouds
7:58 AM 57.2 °F 54.5 °F 91% 30.19 in 10.0 mi WSW 6.9 mph - N/A   Clear
8:16 AM 57.9 °F 54.7 °F 89% 30.20 in 10.0 mi WSW 5.8 mph - N/A   Clear
8:35 AM 58.5 °F 55.0 °F 88% 30.21 in 10.0 mi West 6.9 mph - N/A   Clear
8:36 AM 58.5 °F 55.0 °F 88% 30.21 in 10.0 mi West 6.9 mph - N/A   Clear
8:55 AM 59.4 °F 55.8 °F 88% 30.21 in 10.0 mi WSW 6.9 mph - N/A   Clear
9:19 AM 60.8 °F 56.3 °F 85% 30.22 in 10.0 mi WSW 5.8 mph - N/A   Clear
9:37 AM 62.2 °F 57.2 °F 84% 30.22 in 10.0 mi West 9.2 mph - N/A   Scattered Clouds
9:55 AM 63.3 °F 56.7 °F 79% 30.22 in 10.0 mi West 9.2 mph 16.1 mph N/A   Scattered Clouds
9:56 AM 63.3 °F 56.5 °F 78% 30.22 in 10.0 mi West 10.4 mph 17.3 mph N/A   Scattered Clouds
10:15 AM 64.2 °F 56.3 °F 75% 30.23 in 10.0 mi West 11.5 mph 16.1 mph N/A   Scattered Clouds
10:35 AM 64.2 °F 54.9 °F 72% 30.23 in 10.0 mi WNW 16.1 mph 20.7 mph N/A   Mostly Cloudy
10:58 AM 65.5 °F 54.3 °F 67% 30.23 in 10.0 mi West 15.0 mph 19.6 mph N/A   Mostly Cloudy
11:35 AM 66.6 °F 53.4 °F 63% 30.23 in 10.0 mi West 15.0 mph 19.6 mph N/A   Clear
11:36 AM 66.6 °F 53.4 °F 63% 30.23 in 10.0 mi WNW 13.8 mph 19.6 mph N/A   Clear
11:55 AM 68.2 °F 54.3 °F 61% 30.23 in 10.0 mi WNW 13.8 mph 17.3 mph N/A   Scattered Clouds
11:56 AM 68.2 °F 54.3 °F 61% 30.23 in 10.0 mi WNW 12.7 mph 17.3 mph N/A   Scattered Clouds
12:19 PM 68.2 °F 54.5 °F 62% 30.23 in 10.0 mi West 6.9 mph 17.3 mph N/A   Mostly Cloudy
12:37 PM 69.1 °F 55.2 °F 61% 30.22 in 10.0 mi West 10.4 mph - N/A   Scattered Clouds
12:55 PM 69.8 °F 54.1 °F 57% 30.22 in 10.0 mi West 12.7 mph 19.6 mph N/A   Scattered Clouds
12:56 PM 69.8 °F 54.0 °F 57% 30.22 in 10.0 mi West 12.7 mph 19.6 mph N/A   Scattered Clouds
1:15 PM 70.9 °F 55.2 °F 58% 30.22 in 10.0 mi West 11.5 mph 20.7 mph N/A   Clear
1:16 PM 70.9 °F 54.9 °F 57% 30.22 in 10.0 mi West 10.4 mph 17.3 mph N/A   Clear
1:35 PM 70.9 °F 55.0 °F 57% 30.22 in 10.0 mi West 9.2 mph - N/A   Clear
1:58 PM 72.1 °F 54.7 °F 54% 30.22 in 10.0 mi West 8.1 mph 17.3 mph N/A   Scattered Clouds
2:16 PM 72.3 °F 54.9 °F 54% 30.21 in 10.0 mi West 10.4 mph - N/A   Scattered Clouds
2:35 PM 72.5 °F 54.1 °F 52% 30.21 in 10.0 mi West 11.5 mph 19.6 mph N/A   Clear
2:36 PM 72.5 °F 54.3 °F 53% 30.21 in 10.0 mi WNW 11.5 mph 19.6 mph N/A   Clear
2:55 PM 73.4 °F 55.0 °F 52% 30.21 in 10.0 mi WNW 10.4 mph 18.4 mph N/A   Clear
3:19 PM 73.0 °F 54.7 °F 52% 30.20 in 10.0 mi West 6.9 mph - N/A   Clear
3:55 PM 73.9 °F 55.6 °F 53% 30.19 in 10.0 mi West 8.1 mph - N/A   Clear
4:15 PM 74.5 °F 54.5 °F 50% 30.19 in 10.0 mi West 9.2 mph - N/A   Clear
4:16 PM 74.3 °F 54.3 °F 50% 30.19 in 10.0 mi West 8.1 mph - N/A   Clear
4:35 PM 74.3 °F 54.1 °F 49% 30.19 in 10.0 mi WSW 8.1 mph - N/A   Clear
4:40 PM 74.3 °F 54.3 °F 50% 30.19 in 10.0 mi West 8.1 mph - N/A   Clear
4:58 PM 74.3 °F 54.7 °F 50% 30.18 in 10.0 mi West 9.2 mph - N/A   Clear
5:16 PM 74.5 °F 54.5 °F 50% 30.18 in 10.0 mi West 8.1 mph - N/A   Clear
5:35 PM 74.3 °F 53.4 °F 48% 30.18 in 10.0 mi West 9.2 mph 19.6 mph N/A   Clear
5:36 PM 74.3 °F 53.6 °F 48% 30.18 in 10.0 mi West 9.2 mph 19.6 mph N/A   Clear
5:55 PM 73.9 °F 52.9 °F 48% 30.18 in 10.0 mi WNW 13.8 mph - N/A   Clear
5:56 PM 73.8 °F 52.9 °F 48% 30.18 in 10.0 mi WNW 13.8 mph - N/A   Clear
6:19 PM 73.4 °F 54.9 °F 52% 30.18 in 10.0 mi West 6.9 mph - N/A   Clear
6:37 PM 73.0 °F 55.8 °F 55% 30.18 in 10.0 mi WNW 9.2 mph - N/A   Clear
6:55 PM 71.8 °F 56.5 °F 58% 30.18 in 10.0 mi West 5.8 mph - N/A   Clear
7:15 PM 70.0 °F 56.7 °F 63% 30.18 in 10.0 mi West 4.6 mph - N/A   Clear
7:16 PM 70.0 °F 56.7 °F 63% 30.18 in 10.0 mi West 5.8 mph - N/A   Clear
7:35 PM 68.4 °F 57.4 °F 68% 30.18 in 10.0 mi West 3.5 mph - N/A   Clear
7:58 PM 67.3 °F 56.3 °F 68% 30.18 in 10.0 mi Calm Calm - N/A   Clear
8:16 PM 63.9 °F 55.9 °F 75% 30.18 in 10.0 mi Calm Calm - N/A   Clear
8:35 PM 60.6 °F 56.8 °F 87% 30.18 in 10.0 mi Calm Calm - N/A   Clear
8:36 PM 60.8 °F 56.7 °F 86% 30.18 in 10.0 mi Calm Calm - N/A   Clear
8:55 PM 60.3 °F 56.5 °F 87% 30.18 in 10.0 mi Calm Calm - N/A   Clear
8:56 PM 60.3 °F 56.7 °F 88% 30.18 in 10.0 mi Calm Calm - N/A   Clear
9:19 PM 59.2 °F 56.3 °F 90% 30.18 in 10.0 mi Calm Calm - N/A   Clear
9:37 PM 59.0 °F 56.1 °F 90% 30.19 in 10.0 mi Calm Calm - N/A   Clear
9:55 PM 57.4 °F 54.9 °F 91% 30.19 in 10.0 mi South 4.6 mph - N/A   Clear
9:56 PM 56.8 °F 54.3 °F 91% 30.19 in 10.0 mi South 4.6 mph - N/A   Clear
10:15 PM 58.8 °F 56.7 °F 93% 30.20 in 10.0 mi South 4.6 mph - N/A   Clear
10:16 PM 59.0 °F 56.7 °F 92% 30.20 in 10.0 mi South 4.6 mph - N/A   Clear
10:35 PM 59.0 °F 55.6 °F 88% 30.20 in 10.0 mi Calm Calm - N/A   Clear
10:57 PM 58.1 °F 55.9 °F 93% 30.20 in 10.0 mi South 4.6 mph - N/A   Clear
11:16 PM 59.9 °F 56.5 °F 88% 30.20 in 10.0 mi South 3.5 mph - N/A   Clear
11:35 PM 59.4 °F 56.7 °F 91% 30.20 in 10.0 mi South 4.6 mph - N/A   Clear
11:36 PM 59.4 °F 56.5 °F 90% 30.20 in 10.0 mi South 4.6 mph - N/A   Clear
11:55 PM 60.3 °F 57.0 °F 89% 30.20 in 10.0 mi South 3.5 mph - N/A   Clear
11:56 PM 60.3 °F 57.0 °F 89% 30.20 in 10.0 mi South 3.5 mph - N/A   Clear